Location: *
(51.8167°N, 12.5000°E)
Time: 21:38:13
(UTC+00:00)

SJ-6B - Pass Details

Date: 16 September 2019
Orbit: 509 x 583 km, 97.6° (Epoch: 19 October)

Event Time Altitude Azimuth Distance (km) Brightness Sun altitude
Exits shadow 18:42:47 - 167° (SSE) 2,426 5.8 -12.8°
Reaches altitude 10° 18:44:03 10° 167° (SSE) 1,900 5.2 -13.0°
Maximum altitude 18:48:11 83° 255° (WSW) 592 3.0 -13.6°
Drops below altitude 10° 18:52:19 10° 345° (NNW) 1,897 6.1 -14.1°
Sets 18:54:28 0° 346° (NNW) 2,792 7.0 -14.4°
